Nashua, NH

1:37 PM EST on December 06, 2019 (GMT -0500)
Boire

Weather History for KASH - November, 2019

Change the Weather History Date:

Friday, November 15, 2019

  Actual Average Record
Temperature  
Mean Temperature 33 °F -  
Max Temperature 48 °F 47 °F 73 °F (1956)
Min Temperature 18 °F 27 °F 10 °F (1996)
Degree Days  
Heating Degree Days 32    
Moisture  
Dew Point 22 °F    
Average Humidity 62    
Maximum Humidity 100    
Minimum Humidity 33    
Precipitation  
Precipitation 0.00 in - - ()
Sea Level Pressure  
Sea Level Pressure 30.15 in    
Wind  
Wind Speed 4 mph ()    
Max Wind Speed 13 mph    
Max Gust Speed 23 mph    
Visibility 10.0 miles    
Events      
Averages and records for this station are not official NWS values.
T = Trace of Precipitation, MM = Missing Value Source: Averaged Metar Reports

Daily Weather History Graph

Daily Weather History Graph

Search for Another Location

Airport or City:

Astronomy

Nov. 15, 2019 Rise Set
Actual Time 6:37 AM EST 4:23 PM EST
Civil Twilight 6:07 AM EST 4:53 PM EST
Nautical Twilight 5:32 AM EST 5:27 PM EST
Astronomical Twilight 4:59 AM EST 6:01 PM EST
Moon 6:53 PM EST (11/15) 9:33 AM EST (11/15)
Length of Visible Light 10h 46m
Length of Day
9h 45m
Waning Gibbous, 90% of the Moon is Illuminated
Nov 15
Waning Gibbous
Nov 19
Last Quarter
Nov 26
New
Dec 4
First Quarter
Dec 12
Full

Hourly Weather History & Observations

Time (EST) Temp. Windchill Dew Point Humidity Pressure Visibility Wind Dir Wind Speed Gust Speed Precip Events Conditions
12:56 AM 26.1 °F - 21.0 °F 81% 30.25 in 10.0 mi Calm Calm - N/A   Overcast
1:56 AM 25.0 °F - 21.9 °F 88% 30.24 in 10.0 mi Calm Calm - N/A   Clear
2:56 AM 21.0 °F - 18.0 °F 88% 30.22 in 10.0 mi Calm Calm - N/A   Clear
3:56 AM 21.0 °F 16.2 °F 19.9 °F 96% 30.21 in 10.0 mi Variable 3.5 mph - N/A   Clear
4:56 AM 19.0 °F - 18.0 °F 96% 30.21 in 10.0 mi Calm Calm - N/A   Clear
5:56 AM 18.0 °F - 17.1 °F 96% 30.21 in 10.0 mi Calm Calm - N/A   Clear
6:56 AM 19.0 °F - 19.0 °F 100% 30.20 in 10.0 mi Calm Calm - N/A   Clear
7:56 AM 27.0 °F 23.0 °F 25.0 °F 92% 30.19 in 10.0 mi SSE 3.5 mph - N/A   Clear
8:56 AM 35.1 °F 32.2 °F 23.0 °F 61% 30.17 in 10.0 mi Variable 3.5 mph - N/A   Clear
9:56 AM 41.0 °F 38.0 °F 23.0 °F 49% 30.15 in 10.0 mi Variable 4.6 mph - N/A   Clear
10:56 AM 45.0 °F 40.6 °F 21.9 °F 40% 30.12 in 10.0 mi West 8.1 mph - N/A   Clear
11:56 AM 46.9 °F - 21.0 °F 36% 30.10 in 9.0 mi Variable 6.9 mph 17.3 mph N/A   Clear
12:56 PM 48.0 °F - 21.0 °F 34% 30.07 in 10.0 mi SW 8.1 mph 18.4 mph N/A   Clear
1:56 PM 48.9 °F - 21.0 °F 33% 30.06 in 10.0 mi West 9.2 mph 16.1 mph N/A   Clear
2:56 PM 48.9 °F - 23.0 °F 36% 30.05 in 10.0 mi West 9.2 mph 17.3 mph N/A   Clear
3:56 PM 46.9 °F - 23.0 °F 39% 30.05 in 10.0 mi West 6.9 mph 13.8 mph N/A   Clear
4:56 PM 46.0 °F 40.6 °F 25.0 °F 44% 30.09 in 10.0 mi West 11.5 mph 23.0 mph N/A   Clear
5:56 PM 45.0 °F 39.7 °F 26.1 °F 48% 30.10 in 10.0 mi West 10.4 mph 17.3 mph N/A   Clear
6:56 PM 43.0 °F 38.2 °F 27.0 °F 53% 30.11 in 10.0 mi WNW 8.1 mph 17.3 mph N/A   Clear
7:56 PM 42.1 °F 36.6 °F 25.0 °F 51% 30.12 in 10.0 mi WNW 9.2 mph - N/A   Scattered Clouds
8:56 PM 39.9 °F 35.8 °F 25.0 °F 55% 30.14 in 10.0 mi West 5.8 mph 16.1 mph N/A   Scattered Clouds
9:56 PM 39.0 °F 34.8 °F 24.1 °F 55% 30.16 in 10.0 mi WSW 5.8 mph - N/A   Overcast
10:56 PM 39.9 °F 35.1 °F 24.1 °F 53% 30.19 in 10.0 mi WNW 6.9 mph 16.1 mph N/A   Overcast
11:56 PM 36.0 °F 27.5 °F 23.0 °F 59% 30.25 in 10.0 mi NNW 12.7 mph 21.9 mph N/A   Overcast